Ames, IA

10:35 PM CDT on May 22, 2017 (GMT -0500)
Ames Municipal

Weather History for KAMW - August, 2014

Change the Weather History Date:

Friday, August 29, 2014

  Actual Average Record
Temperature  
Mean Temperature 75 °F 69 °F  
Max Temperature 84 °F 80 °F 94 °F (2012)
Min Temperature 65 °F 57 °F 51 °F (2004)
Degree Days  
Heating Degree Days 0 1  
Month to date heating degree days 0 5  
Since 1 June heating degree days 16 33  
Since 1 July heating degree days 12 9  
Cooling Degree Days 10 4  
Month to date cooling degree days 207 190  
Year to date cooling degree days 588 676  
Since 1 June cooling degree days 511 627  
Growing Degree Days 24 (Base 50)    
Moisture  
Dew Point 68 °F    
Average Humidity 83    
Maximum Humidity 100    
Minimum Humidity 65    
Precipitation  
Precipitation 0.19 in 0.14 in 3.44 in (2016)
Month to date precipitation 6.03 4.16  
Sea Level Pressure  
Sea Level Pressure 29.82 in    
Wind  
Wind Speed 7 mph (South)    
Max Wind Speed 16 mph    
Max Gust Speed 23 mph    
Visibility 9 miles    
Events Rain , Thunderstorm    
T = Trace of Precipitation, MM = Missing Value Source: NWS Daily Summary

Daily Weather History Graph

Daily Weather History Graph

Search for Another Location

Airport or City:

Trip Planner

Search our weather history database for the weather conditions in past years. The results will help you decide how hot, cold, wet, or windy it might be!

Date:

Astronomy

Aug. 29, 2014 Rise Set
Actual Time 6:36 AM CDT 7:52 PM CDT
Civil Twilight 6:08 AM CDT 8:21 PM CDT
Nautical Twilight 5:33 AM CDT 8:56 PM CDT
Astronomical Twilight 4:56 AM CDT 9:32 PM CDT
Moon 10:31 AM CDT (8/29) 9:46 PM CDT (8/29)
Length of Visible Light 14h 13m
Length of Day
13h 16m
Waxing Crescent, 15% of the Moon is Illuminated
Aug 29
Waxing Crescent
Sep 2
First Quarter
Sep 8
Full
Sep 15
Last Quarter
Sep 24
New

Hourly Weather History & Observations

Time (CDT) Temp. Heat Index Dew Point Humidity Pressure Visibility Wind Dir Wind Speed Gust Speed Precip Events Conditions
12:43 AM 68.0 °F - 68.0 °F 100% 29.92 in 10.0 mi ESE 3.5 mph - 0.08 in Rain , Thunderstorm Light Rain
12:53 AM 68.0 °F - 66.9 °F 96% 29.92 in 10.0 mi SW 9.2 mph - 0.08 in Rain , Thunderstorm Light Rain
1:16 AM 68.0 °F - 66.9 °F 96% 29.93 in 10.0 mi South 8.1 mph - 0.02 in Rain Light Rain
1:53 AM 68.0 °F - 66.9 °F 96% 29.90 in 5.0 mi South 6.9 mph - 0.10 in Rain Rain
2:53 AM 68.0 °F - 66.9 °F 96% 29.83 in 10.0 mi NNE 5.8 mph - 0.04 in   Overcast
3:46 AM 66.9 °F - 66.0 °F 97% 29.87 in 10.0 mi SE 6.9 mph - N/A   Overcast
3:53 AM 66.9 °F - 66.0 °F 97% 29.84 in 10.0 mi SE 6.9 mph - N/A   Mostly Cloudy
4:17 AM 66.9 °F - 66.0 °F 97% 29.85 in 10.0 mi SE 6.9 mph - N/A   Partly Cloudy
4:53 AM 66.0 °F - 66.0 °F 100% 29.83 in 10.0 mi SE 5.8 mph - N/A   Mostly Cloudy
5:07 AM 66.0 °F - 66.0 °F 100% 29.86 in 10.0 mi Calm Calm - N/A   Mostly Cloudy
5:25 AM 66.9 °F - 66.0 °F 97% 29.87 in 10.0 mi West 3.5 mph - N/A   Overcast
5:41 AM 66.0 °F - 66.0 °F 100% 29.87 in 10.0 mi North 5.8 mph - N/A   Mostly Cloudy
5:53 AM 66.0 °F - 66.0 °F 100% 29.84 in 10.0 mi Calm Calm - N/A   Scattered Clouds
6:53 AM 64.9 °F - 64.9 °F 100% 29.83 in 9.0 mi East 3.5 mph - N/A   Clear
7:53 AM 66.0 °F - 66.0 °F 100% 29.83 in 10.0 mi SE 5.8 mph - N/A   Clear
8:03 AM 66.9 °F - 66.9 °F 100% 29.85 in 9.0 mi SE 4.6 mph - N/A   Scattered Clouds
8:20 AM 68.0 °F - 68.0 °F 100% 29.85 in 6.0 mi SE 5.8 mph - N/A   Mostly Cloudy
8:53 AM 70.0 °F - 69.1 °F 97% 29.82 in 4.0 mi SSE 13.8 mph - N/A   Overcast
9:27 AM 73.0 °F - 70.0 °F 90% 29.84 in 6.0 mi SSE 9.2 mph - N/A   Scattered Clouds
10:53 AM 79.0 °F - 72.0 °F 79% 29.81 in 9.0 mi South 9.2 mph - N/A   Clear
11:53 AM 81.0 °F 85.2 °F 72.0 °F 74% 29.79 in 10.0 mi South 13.8 mph - N/A   Clear
12:53 PM 81.0 °F 84.4 °F 70.0 °F 69% 29.79 in 10.0 mi SSW 11.5 mph - N/A   Clear
1:53 PM 84.0 °F 89.0 °F 71.1 °F 65% 29.78 in 10.0 mi SSW 13.8 mph 19.6 mph N/A   Clear
3:53 PM 79.0 °F - 71.1 °F 77% 29.75 in 10.0 mi WSW 6.9 mph - N/A   Scattered Clouds
4:53 PM 75.0 °F - 72.0 °F 90% 29.75 in 4.0 mi South 5.8 mph - 0.03 in Rain Light Rain
5:21 PM 73.0 °F - 69.1 °F 87% 29.78 in 9.0 mi South 13.8 mph - 0.01 in Rain , Thunderstorm Light Rain
5:43 PM 72.0 °F - 68.0 °F 87% 29.79 in 10.0 mi South 13.8 mph - 0.01 in   Overcast
5:53 PM 72.0 °F - 69.1 °F 91% 29.77 in 10.0 mi SSW 8.1 mph - 0.01 in   Mostly Cloudy
6:53 PM 72.0 °F - 69.1 °F 91% 29.75 in 10.0 mi South 5.8 mph - N/A   Partly Cloudy
7:53 PM 70.0 °F - 66.0 °F 87% 29.75 in 10.0 mi SSW 5.8 mph - N/A   Overcast
8:53 PM 69.1 °F - 66.9 °F 93% 29.75 in 9.0 mi Calm Calm - N/A   Overcast
10:53 PM 68.0 °F - 66.9 °F 96% 29.76 in 5.0 mi WSW 8.1 mph - 0.02 in Rain Light Rain
11:53 PM 66.9 °F - 66.0 °F 97% 29.77 in 10.0 mi SW 8.1 mph - 0.00 in   Overcast